Orbital Elements at Epoch 2459000.5 (2020-May-31.0) TDB
Reference: JPL 15 (heliocentric ecliptic J2000)
Element | Value | Uncertainty (1-sigma) | Units |
e | .2191539207436177 | 8.9693e-08 | |
a | 2.383077879612967 | 1.0893e-08 | au |
q | 1.860817018858398 | 2.1699e-07 | au |
i | 1.661579013198234 | 8.7528e-06 | deg |
node | 211.5049033103615 | 0.00014179 | deg |
peri | 188.0387001682255 | 0.00014319 | deg |
M | 50.21877183130108 | 1.4681e-05 | deg |
tp | 2458813.056939562689 (2019-Nov-25.55693956) | 5.463e-05 | TDB |
period | 1343.710714075496 3.68 | 9.2131e-06 2.522e-08 | d yr |
n | .267914809511427 | 1.8369e-09 | deg/d |
Q | 2.905338740367535 | 1.328e-08 | au |
|
| | Orbit Determination Parameters
Additional Information
|